| time (UTC) | temp F | wind direction | speed knots | gust knots | rain 1hr in | rain 24hr in | rain mn in | humidity % | barometer mb |
| 20260902022028 | 67 | 248 | 0.9 | 3.5 | 0.00 | 0.00 | 0.00 | 79 | 1023.0 |
| 20260902021027 | 67 | 0 | 1.7 | 4.3 | 0.00 | 0.00 | 0.00 | 78 | 1023.1 |
| 20260902020028 | 67 | 45 | 4.3 | 7.8 | 0.00 | 0.00 | 0.00 | 77 | 1022.8 |
| 20260902015027 | 67 | 68 | 3.5 | 8.7 | 0.00 | 0.00 | 0.00 | 78 | 1022.7 |
| 20260902014028 | 68 | 45 | 2.6 | 5.2 | 0.00 | 0.00 | 0.00 | 77 | 1022.9 |
| 20260902013027 | 68 | 45 | 2.6 | 4.3 | 0.00 | 0.00 | 0.00 | 77 | 1023.0 |
| 20260902012027 | 68 | 45 | 2.6 | 4.3 | 0.00 | 0.00 | 0.00 | 76 | 1023.0 |
| 20260902011049 | 68 | 23 | 1.7 | 3.5 | 0.00 | 0.00 | 0.00 | 76 | 1023.0 |
| 20260902010027 | 69 | 45 | 0.9 | 2.6 | 0.00 | 0.00 | 0.00 | 75 | 1023.0 |
| 20260902005027 | 69 | 0 | 0.9 | 3.5 | 0.00 | 0.00 | 0.00 | 75 | 1023.0 |
| 20260902004028 | 68 | 68 | 1.7 | 4.3 | 0.00 | 0.00 | 0.00 | 76 | 1023.2 |
| 20260902003027 | 68 | 23 | 3.5 | 5.2 | 0.00 | 0.00 | 0.00 | 75 | 1023.1 |
| 20260902002027 | 68 | 45 | 2.6 | 6.1 | 0.00 | 0.00 | 0.00 | 75 | 1023.0 |
| 20260902001027 | 68 | 23 | 3.5 | 6.1 | 0.00 | 0.00 | 0.00 | 75 | 1022.9 |
| 20260902000027 | 68 | 23 | 4.3 | 7.0 | 0.00 | 0.00 | 0.00 | 77 | 1022.9 |
| 20260901235027 | 69 | 23 | 4.3 | 7.0 | 0.00 | 0.00 | 0.00 | 77 | 1022.9 |
| 20260901233027 | 69 | 0 | 3.5 | 5.2 | 0.00 | 0.00 | 0.00 | 77 | 1022.7 |
| 20260901232027 | 68 | 0 | 4.3 | 7.0 | 0.00 | 0.00 | 0.00 | 78 | 1022.7 |
| 20260901231027 | 68 | 23 | 4.3 | 7.8 | 0.00 | 0.00 | 0.00 | 78 | 1022.6 |
| 20260901230028 | 68 | 45 | 5.2 | 7.0 | 0.00 | 0.00 | 0.00 | 78 | 1022.4 |
| 20260901225027 | 69 | 45 | 4.3 | 7.0 | 0.00 | 0.00 | 0.00 | 78 | 1022.5 |
| 20260901224027 | 69 | 23 | 4.3 | 6.1 | 0.00 | 0.00 | 0.00 | 76 | 1022.5 |
| 20260901223107 | 70 | 0 | 4.3 | 6.1 | 0.00 | 0.00 | 0.00 | 76 | 1022.5 |
| 20260901222027 | 70 | 23 | 3.5 | 6.1 | 0.00 | 0.00 | 0.00 | 76 | 1022.4 |
| 20260901221027 | 70 | 45 | 2.6 | 4.3 | 0.00 | 0.00 | 0.00 | 77 | 1022.4 |
| 20260901220027 | 70 | 68 | 2.6 | 4.3 | 0.00 | 0.00 | 0.00 | 76 | 1022.3 |
| 20260901215027 | 71 | 23 | 3.5 | 5.2 | 0.00 | 0.00 | 0.00 | 74 | 1022.1 |
| 20260901214027 | 71 | 45 | 1.7 | 4.3 | 0.00 | 0.00 | 0.00 | 72 | 1022.2 |
| 20260901213047 | 71 | 315 | 0.9 | 3.5 | 0.00 | 0.00 | 0.00 | 72 | 1021.9 |
| 20260901212027 | 71 | 45 | 1.7 | 4.3 | 0.00 | 0.00 | 0.00 | 73 | 1021.9 |
| 20260901211047 | 71 | 293 | 1.7 | 3.5 | 0.00 | 0.00 | 0.00 | 74 | 1021.8 |
| 20260901210027 | 72 | 293 | 0.9 | 2.6 | 0.00 | 0.00 | 0.00 | 72 | 1021.8 |
| 20260901205027 | 72 | 0.0 | 0.0 | 0.00 | 0.00 | 0.00 | 73 | 1021.8 | |
| 20260901204027 | 72 | 45 | 0.9 | 2.6 | 0.00 | 0.00 | 0.00 | 71 | 1021.6 |
| 20260901203028 | 72 | 68 | 0.9 | 2.6 | 0.00 | 0.00 | 0.00 | 72 | 1021.4 |
| 20260901202027 | 72 | 315 | 1.7 | 3.5 | 0.00 | 0.00 | 0.00 | 71 | 1021.4 |
| 20260901201027 | 73 | 338 | 2.6 | 5.2 | 0.00 | 0.00 | 0.00 | 71 | 1021.3 |
| 20260901200027 | 72 | 0 | 2.6 | 6.1 | 0.00 | 0.00 | 0.00 | 71 | 1021.1 |
| 20260901195027 | 72 | 0 | 3.5 | 6.1 | 0.00 | 0.00 | 0.00 | 71 | 1021.1 |
| 20260901194027 | 73 | 0 | 2.6 | 5.2 | 0.00 | 0.00 | 0.00 | 71 | 1021.1 |
| 20260901193027 | 74 | 0 | 1.7 | 3.5 | 0.00 | 0.00 | 0.00 | 70 | 1020.8 |
| 20260901192027 | 74 | 0.0 | 3.5 | 0.00 | 0.00 | 0.00 | 70 | 1020.9 | |
| 20260901191027 | 74 | 293 | 0.9 | 1.7 | 0.00 | 0.00 | 0.00 | 70 | 1020.9 |
| 20260901190207 | 74 | 225 | 1.7 | 3.5 | 0.00 | 0.00 | 0.00 | 70 | 1020.6 |
| 20260901185027 | 74 | 203 | 2.6 | 4.3 | 0.00 | 0.00 | 0.00 | 69 | 1020.6 |
| 20260901184047 | 75 | 203 | 3.5 | 6.1 | 0.00 | 0.00 | 0.00 | 69 | 1020.5 |
| 20260901183047 | 75 | 203 | 4.3 | 7.8 | 0.00 | 0.00 | 0.00 | 68 | 1020.7 |
| 20260901182026 | 75 | 203 | 6.1 | 9.6 | 0.00 | 0.00 | 0.00 | 67 | 1020.6 |
| 20260901181026 | 76 | 180 | 5.2 | 9.6 | 0.00 | 0.00 | 0.00 | 66 | 1020.7 |
| 20260901180046 | 77 | 180 | 3.5 | 7.8 | 0.00 | 0.00 | 0.00 | 64 | 1020.6 |
| 20260901175029 | 78 | 180 | 3.5 | 7.0 | 0.00 | 0.00 | 0.00 | 63 | 1020.7 |
| 20260901174029 | 78 | 180 | 4.3 | 9.6 | 0.00 | 0.00 | 0.00 | 62 | 1020.6 |
| 20260901173028 | 79 | 180 | 5.2 | 8.7 | 0.00 | 0.00 | 0.00 | 61 | 1020.7 |
| 20260901172028 | 79 | 180 | 4.3 | 7.8 | 0.00 | 0.00 | 0.00 | 60 | 1020.7 |
| 20260901171029 | 79 | 180 | 4.3 | 8.7 | 0.00 | 0.00 | 0.00 | 59 | 1020.7 |
| 20260901170028 | 79 | 180 | 4.3 | 8.7 | 0.00 | 0.00 | 0.00 | 59 | 1020.9 |
| 20260901165028 | 80 | 203 | 6.1 | 10.4 | 0.00 | 0.00 | 0.00 | 58 | 1021.0 |
| 20260901164029 | 80 | 180 | 5.2 | 10.4 | 0.00 | 0.00 | 0.00 | 58 | 1021.0 |
| 20260901163028 | 80 | 180 | 5.2 | 9.6 | 0.00 | 0.00 | 0.00 | 57 | 1021.0 |
| 20260901162028 | 80 | 203 | 5.2 | 10.4 | 0.00 | 0.00 | 0.00 | 57 | 1020.9 |
| 20260901161028 | 80 | 180 | 5.2 | 11.3 | 0.00 | 0.00 | 0.00 | 58 | 1020.9 |
| 20260901160029 | 80 | 135 | 5.2 | 13.0 | 0.00 | 0.00 | 0.00 | 57 | 1021.0 |
| 20260901155048 | 81 | 180 | 6.1 | 10.4 | 0.00 | 0.00 | 0.00 | 56 | 1021.0 |
| 20260901154048 | 82 | 180 | 6.1 | 10.4 | 0.00 | 0.00 | 0.00 | 55 | 1021.1 |
| 20260901153048 | 82 | 158 | 5.2 | 10.4 | 0.00 | 0.00 | 0.00 | 54 | 1021.1 |
| 20260901152028 | 82 | 180 | 5.2 | 9.6 | 0.00 | 0.00 | 0.00 | 54 | 1020.9 |
| 20260901151028 | 82 | 158 | 5.2 | 10.4 | 0.00 | 0.00 | 0.00 | 54 | 1021.0 |
| 20260901150028 | 82 | 180 | 4.3 | 8.7 | 0.00 | 0.00 | 0.00 | 54 | 1021.0 |
| 20260901145028 | 83 | 158 | 3.5 | 7.8 | 0.00 | 0.00 | 0.00 | 54 | 1021.1 |
| 20260901144108 | 82 | 203 | 5.2 | 13.0 | 0.00 | 0.00 | 0.00 | 55 | 1021.1 |
| 20260901143028 | 82 | 180 | 3.5 | 7.0 | 0.00 | 0.00 | 0.00 | 53 | 1021.2 |
| 20260901142028 | 82 | 158 | 5.2 | 10.4 | 0.00 | 0.00 | 0.00 | 53 | 1021.4 |
| 20260901141029 | 82 | 180 | 5.2 | 12.2 | 0.00 | 0.00 | 0.00 | 54 | 1021.4 |
| 20260901140028 | 81 | 158 | 7.0 | 11.3 | 0.00 | 0.00 | 0.00 | 55 | 1021.5 |
| 20260901135028 | 81 | 180 | 7.0 | 13.0 | 0.00 | 0.00 | 0.00 | 54 | 1021.6 |
| 20260901134028 | 80 | 180 | 7.0 | 15.6 | 0.00 | 0.00 | 0.00 | 55 | 1021.6 |
| 20260901133028 | 81 | 180 | 6.1 | 12.2 | 0.00 | 0.00 | 0.00 | 54 | 1021.8 |
| 20260901132028 | 81 | 180 | 7.0 | 13.9 | 0.00 | 0.00 | 0.00 | 55 | 1021.8 |
| 20260901131028 | 81 | 180 | 6.1 | 13.0 | 0.00 | 0.00 | 0.00 | 55 | 1022.0 |
| 20260901130028 | 81 | 180 | 6.1 | 10.4 | 0.00 | 0.00 | 0.00 | 55 | 1022.0 |
| 20260901125028 | 81 | 180 | 7.8 | 14.8 | 0.00 | 0.00 | 0.00 | 55 | 1022.1 |
| 20260901124048 | 80 | 180 | 8.7 | 14.8 | 0.00 | 0.00 | 0.00 | 57 | 1022.1 |
| 20260901123028 | 80 | 180 | 7.8 | 13.9 | 0.00 | 0.00 | 0.00 | 57 | 1022.2 |
| 20260901122028 | 80 | 180 | 7.8 | 15.6 | 0.00 | 0.00 | 0.00 | 57 | 1022.3 |
| 20260901121048 | 80 | 180 | 6.1 | 12.2 | 0.00 | 0.00 | 0.00 | 57 | 1022.3 |
| 20260901120027 | 81 | 158 | 5.2 | 12.2 | 0.00 | 0.00 | 0.00 | 56 | 1022.3 |
| 20260901115028 | 80 | 180 | 6.1 | 13.9 | 0.00 | 0.00 | 0.00 | 58 | 1022.4 |
| 20260901114028 | 80 | 158 | 6.1 | 11.3 | 0.00 | 0.00 | 0.00 | 59 | 1022.5 |
| 20260901113028 | 80 | 180 | 7.0 | 11.3 | 0.00 | 0.00 | 0.00 | 61 | 1022.5 |
| 20260901112027 | 79 | 180 | 7.0 | 13.9 | 0.00 | 0.00 | 0.00 | 62 | 1022.6 |
| 20260901111027 | 79 | 180 | 7.0 | 13.0 | 0.00 | 0.00 | 0.00 | 62 | 1022.6 |
| 20260901110027 | 78 | 180 | 7.0 | 13.9 | 0.00 | 0.00 | 0.00 | 63 | 1022.5 |
| 20260901105047 | 78 | 180 | 6.1 | 12.2 | 0.00 | 0.00 | 0.00 | 63 | 1022.6 |
| 20260901104028 | 77 | 158 | 5.2 | 12.2 | 0.00 | 0.00 | 0.00 | 65 | 1022.6 |
| 20260901103047 | 77 | 158 | 5.2 | 10.4 | 0.00 | 0.00 | 0.00 | 67 | 1022.7 |
| 20260901102027 | 77 | 203 | 4.3 | 11.3 | 0.00 | 0.00 | 0.00 | 66 | 1022.6 |
| 20260901101027 | 78 | 158 | 2.6 | 7.8 | 0.00 | 0.00 | 0.00 | 65 | 1022.6 |
| 20260901100027 | 77 | 45 | 1.7 | 4.3 | 0.00 | 0.00 | 0.00 | 66 | 1022.5 |
| 20260901095027 | 76 | 180 | 2.6 | 5.2 | 0.00 | 0.00 | 0.00 | 67 | 1022.3 |
| 20260901094027 | 77 | 113 | 1.7 | 6.1 | 0.00 | 0.00 | 0.00 | 66 | 1022.5 |
| 20260901093027 | 75 | 158 | 1.7 | 3.5 | 0.00 | 0.00 | 0.00 | 69 | 1022.3 |
| 20260901092027 | 75 | 158 | 3.5 | 5.2 | 0.00 | 0.00 | 0.00 | 69 | 1022.4 |
| 20260901091027 | 76 | 158 | 1.7 | 5.2 | 0.00 | 0.00 | 0.00 | 69 | 1022.6 |
| 20260901090027 | 75 | 135 | 1.7 | 4.3 | 0.00 | 0.00 | 0.00 | 69 | 1022.5 |
| 20260901085027 | 75 | 158 | 1.7 | 4.3 | 0.00 | 0.00 | 0.00 | 72 | 1022.5 |
| 20260901084047 | 74 | 68 | 1.7 | 2.6 | 0.00 | 0.00 | 0.00 | 73 | 1022.6 |
| 20260901083047 | 73 | 90 | 1.7 | 4.3 | 0.00 | 0.00 | 0.00 | 76 | 1022.6 |
| 20260901082027 | 71 | 68 | 1.7 | 4.3 | 0.00 | 0.00 | 0.00 | 79 | 1022.5 |
| 20260901081047 | 70 | 23 | 1.7 | 3.5 | 0.00 | 0.00 | 0.00 | 82 | 1022.3 |
| 20260901080027 | 69 | 90 | 0.9 | 2.6 | 0.00 | 0.00 | 0.00 | 83 | 1022.3 |
| 20260901075047 | 69 | 90 | 0.9 | 2.6 | 0.00 | 0.00 | 0.00 | 84 | 1022.4 |
| 20260901074027 | 69 | 90 | 1.7 | 2.6 | 0.00 | 0.00 | 0.00 | 83 | 1022.4 |
| 20260901073027 | 69 | 90 | 0.9 | 2.6 | 0.00 | 0.00 | 0.00 | 83 | 1022.4 |
| 20260901072027 | 68 | 90 | 0.9 | 2.6 | 0.00 | 0.00 | 0.00 | 83 | 1022.4 |
| 20260901071027 | 68 | 90 | 2.6 | 4.3 | 0.00 | 0.00 | 0.00 | 84 | 1022.3 |
| 20260901070027 | 68 | 90 | 1.7 | 4.3 | 0.00 | 0.00 | 0.00 | 86 | 1022.4 |
| 20260901065027 | 68 | 90 | 1.7 | 5.2 | 0.00 | 0.00 | 0.00 | 87 | 1022.3 |
| 20260901064047 | 67 | 90 | 2.6 | 5.2 | 0.00 | 0.00 | 0.00 | 87 | 1022.3 |
| 20260901063027 | 67 | 90 | 2.6 | 5.2 | 0.00 | 0.00 | 0.00 | 87 | 1022.2 |
| 20260901062027 | 68 | 90 | 0.9 | 3.5 | 0.00 | 0.00 | 0.00 | 88 | 1022.4 |
| 20260901061026 | 68 | 90 | 0.9 | 2.6 | 0.00 | 0.00 | 0.00 | 89 | 1022.3 |
| 20260901060147 | 68 | 0.0 | 0.0 | 0.00 | 0.00 | 0.00 | 89 | 1022.4 | |
| 20260901055026 | 68 | 0.0 | 0.0 | 0.00 | 0.00 | 0.00 | 89 | 1022.3 | |
| 20260901054026 | 68 | 0.0 | 0.0 | 0.00 | 0.00 | 0.00 | 89 | 1022.2 | |
| 20260901053047 | 68 | 0.0 | 0.0 | 0.00 | 0.00 | 0.00 | 89 | 1022.3 | |
| 20260901052027 | 68 | 0.0 | 0.0 | 0.00 | 0.00 | 0.00 | 88 | 1022.3 | |
| 20260901051027 | 68 | 0.0 | 2.6 | 0.00 | 0.00 | 0.00 | 88 | 1022.2 | |
| 20260901050027 | 68 | 0.0 | 2.6 | 0.00 | 0.00 | 0.00 | 88 | 1022.3 | |
| 20260901045026 | 68 | 180 | 0.9 | 2.6 | 0.00 | 0.00 | 0.00 | 88 | 1022.4 |
| 20260901044046 | 68 | 203 | 1.7 | 4.3 | 0.00 | 0.00 | 0.00 | 87 | 1022.4 |
| 20260901043026 | 68 | 0.0 | 0.0 | 0.00 | 0.00 | 0.00 | 86 | 1022.4 | |
| 20260901042028 | 68 | 0.0 | 0.0 | 0.00 | 0.00 | 0.00 | 85 | 1022.4 | |
| 20260901041028 | 69 | 0.0 | 0.0 | 0.00 | 0.00 | 0.00 | 85 | 1022.4 | |
| 20260901040028 | 69 | 0.0 | 1.7 | 0.00 | 0.00 | 0.00 | 85 | 1022.8 | |
| 20260901035028 | 68 | 0.0 | 1.7 | 0.00 | 0.00 | 0.00 | 85 | 1022.9 | |
| 20260901034048 | 68 | 68 | 0.9 | 2.6 | 0.00 | 0.00 | 0.00 | 85 | 1023.0 |
| 20260901033048 | 69 | 113 | 0.9 | 2.6 | 0.00 | 0.00 | 0.00 | 84 | 1023.3 |
| 20260901032028 | 69 | 135 | 0.9 | 3.5 | 0.00 | 0.00 | 0.00 | 84 | 1023.3 |
| 20260901031028 | 69 | 113 | 0.9 | 3.5 | 0.00 | 0.00 | 0.00 | 83 | 1023.3 |
| 20260901030028 | 69 | 0.0 | 1.7 | 0.00 | 0.00 | 0.00 | 83 | 1023.3 | |
| 20260901025028 | 69 | 90 | 0.9 | 2.6 | 0.00 | 0.00 | 0.00 | 83 | 1023.5 |
| 20260901024028 | 69 | 90 | 0.9 | 2.6 | 0.00 | 0.00 | 0.00 | 82 | 1023.7 |
| 20260901023028 | 69 | 135 | 0.9 | 2.6 | 0.00 | 0.00 | 0.00 | 82 | 1023.8 |